Theta_e
325 326 326 327 328 328 326 325 326 326 325 324 325 327 324 325 324 329 324 327 334 335 335 335 334 332 330 329 329 329 328 329 329 329 329 329 328 327 327 327 327 327 328
325 324 323 323 324 323 324 325 328 325 325 323 323 323 324 323 324 325 328 321 325 334 334 334 335 332 330 328 329 328 327 328 328 328 327 326 325 325 325 326 326 327 327
322 323 322 321 322 322 324 323 323 325 325 325 325 325 321 323 322 323 325 323 320 332 333 333 334 331 328 328 328 327 326 325 326 326 325 324 324 324 324 324 325 325 324
321 322 322 319 318 320 320 319 319 319 320 321 322 323 324 325 324 326 323 323 322 326 331 332 331 329 327 326 325 326 325 324 324 324 323 323 323 324 324 324 324 324 323
320 318 318 319 320 319 319 319 318 319 317 318 320 321 322 323 323 323 323 324 322 326 336 330 329 329 327 326 324 324 324 324 322 323 323 322 321 321 321 323 323 323 322
320 320 319 319 319 318 318 318 319 318 318 318 318 318 321 322 322 323 322 321 320 325 332 329 329 327 327 325 322 323 323 323 322 322 321 320 320 321 321 321 321 323 323
317 319 319 319 321 320 320 319 318 318 316 318 315 315 319 321 321 322 322 322 322 328 328 328 325 325 325 325 324 323 322 321 321 321 320 321 321 321 321 321 321 322 321
313 313 316 313 316 314 316 317 318 315 315 320 313 314 311 315 319 320 323 321 321 324 326 326 326 326 326 326 326 322 322 320 320 319 320 320 320 320 320 320 320 320 319
312 313 312 313 315 316 314 317 317 317 313 319 319 316 311 310 314 318 315 320 321 326 324 324 324 325 327 326 324 325 321 318 318 319 319 318 319 319 319 318 317 318 317
314 315 316 316 317 316 317 318 318 317 315 315 318 318 319 316 314 310 315 316 319 319 321 321 323 325 326 327 324 321 319 317 318 318 318 318 317 317 316 315 315 316 314
314 314 312 315 316 319 316 318 316 317 316 314 316 315 314 318 319 315 309 312 316 318 318 321 323 324 324 325 325 323 318 317 318 317 316 316 317 316 313 313 312 312 313
310 313 314 316 317 315 313 313 318 318 317 314 315 314 314 310 310 312 309 311 315 316 319 321 322 323 324 325 320 316 316 316 316 317 315 315 315 314 311 312 311 311 311
311 310 310 312 312 315 315 313 317 317 317 313 312 312 316 315 314 309 311 307 311 316 318 321 321 323 323 323 321 315 315 316 315 315 315 315 313 313 311 311 311 311 312
312 314 312 313 311 311 311 314 315 316 317 317 311 311 312 312 314 314 312 309 309 312 315 315 319 319 320 319 317 315 318 315 314 314 314 314 313 313 313 312 312 312 312
312 314 313 312 310 311 314 317 317 316 317 316 313 316 317 316 317 316 315 317 313 307 308 312 315 319 318 318 316 317 318 315 315 314 314 314 314 315 314 313 313 313 312
313 313 312 312 313 314 316 318 316 314 313 314 314 315 316 315 315 315 315 315 315 313 308 315 314 317 318 316 316 318 317 314 314 314 315 314 315 316 316 315 314 314 314
313 311 311 312 313 311 312 316 317 316 314 316 317 316 315 317 314 314 315 315 314 314 311 310 315 317 317 317 317 317 316 316 315 313 313 315 315 315 315 316 315 315 314
313 312 312 312 313 313 316 315 314 311 311 310 313 314 313 313 315 316 315 314 313 314 313 312 315 315 315 317 318 318 317 316 317 317 315 314 314 314 314 314 314 314 314
313 312 311 311 312 313 314 314 315 314 313 313 313 312 312 314 314 314 314 314 315 316 317 315 314 317 317 318 316 318 317 318 317 317 315 315 314 314 314 314 313 313 312
313 312 311 311 312 312 313 313 314 314 314 314 315 315 314 314 313 314 315 316 316 316 316 315 314 314 315 317 316 313 314 316 316 317 315 312 312 313 313 312 313 313 311
313 312 311 312 313 312 311 312 313 313 314 314 315 314 316 313 310 312 315 316 316 315 314 313 312 313 313 313 313 315 313 315 318 319 316 317 317 317 316 313 314 315 312
313 313 312 312 313 311 303 305 310 315 314 314 314 315 316 312 310 304 307 310 313 316 315 312 314 311 314 315 315 314 313 313 312 321 316 315 318 316 318 318 312 309 310
313 313 312 311 311 311 300 300 303 317 316 316 316 316 314 312 311 313 309 308 309 309 309 316 315 315 315 317 316 315 315 314 313 317 315 312 319 315 319 318 308 307 306
314 313 313 312 311 307 299 299 302 316 316 315 314 314 313 314 314 311 314 315 315 316 317 316 318 318 319 319 318 316 315 315 316 317 317 310 317 314 320 319 307 307 305
316 315 312 310 309 309 297 297 305 316 315 316 316 317 316 315 304 300 315 314 314 316 311 306 305 303 301 300 304 313 313 312 311 311 318 314 313 316 320 316 315 306 304
316 315 313 311 304 309 297 296 301 310 314 312 316 316 306 306 297 298 314 314 312 313 313 313 315 312 310 310 304 316 313 307 306 305 316 313 314 311 307 316 318 318 313
Wind_Speed
4 3 3 3 3 2 2 2 3 3 2 3 3 7 2 4 5 3 1 5 6 10 9 8 8 8 7 5 5 6 6 6 6 5 5 7 6 7 7 7 7 8 9
4 3 3 3 3 3 4 4 3 3 5 3 4 4 5 4 4 4 3 3 7 14 8 10 11 8 7 5 5 5 5 5 5 4 4 6 6 6 6 7 7 8 10
6 6 5 4 4 4 4 4 5 6 7 5 6 6 5 7 6 7 4 4 4 10 10 10 12 10 8 6 4 3 3 3 4 3 3 4 4 4 5 7 7 8 9
5 6 6 4 3 5 5 5 5 7 7 6 5 5 4 4 7 7 7 6 5 7 10 9 10 9 7 5 3 4 4 4 2 2 1 2 3 5 6 8 9 10 10
8 5 4 5 5 5 5 4 6 6 7 8 7 6 5 4 5 6 7 9 8 7 5 10 11 11 9 6 4 4 5 4 2 3 2 1 3 5 6 8 10 10 11
8 7 4 5 5 5 6 5 6 6 7 7 7 8 7 5 5 6 7 6 5 5 8 10 9 9 9 7 4 4 4 4 3 3 1 2 4 6 8 10 11 12 12
10 8 6 5 5 6 7 7 6 7 7 6 7 7 4 4 5 5 5 6 7 8 9 6 5 5 7 6 6 4 4 3 1 2 2 4 7 8 11 13 12 11 10
10 8 7 5 7 6 7 8 5 6 6 6 6 5 5 4 4 3 2 4 4 5 7 8 7 6 5 3 5 5 4 2 2 3 5 7 8 10 11 10 9 11 10
9 8 6 6 7 5 6 8 6 7 7 5 6 4 4 3 6 4 6 4 4 5 6 6 5 5 5 4 5 5 5 1 3 4 6 8 9 10 9 9 10 10 10
10 9 9 7 6 6 7 6 5 6 5 7 3 3 5 5 3 5 5 4 4 5 4 4 5 4 3 3 2 3 4 2 5 6 7 8 9 9 8 8 9 9 8
9 10 8 6 5 2 5 5 5 5 3 6 4 1 4 2 1 3 8 6 5 3 3 2 3 3 3 3 3 4 1 4 7 6 6 8 10 6 5 6 7 8 9
7 10 11 7 6 5 5 5 6 6 3 3 3 2 2 0 2 3 4 3 4 4 3 3 3 3 2 2 1 0 2 5 7 8 6 7 8 4 4 5 6 6 7
7 7 6 6 6 8 7 7 6 5 2 2 2 0 2 3 3 2 3 2 2 2 2 2 3 2 2 2 2 3 5 6 6 7 7 7 4 3 4 4 5 5 6
7 9 7 7 7 6 6 6 4 3 3 5 4 3 2 4 4 4 3 4 4 3 3 3 3 3 3 3 3 5 8 6 7 9 7 6 6 6 6 7 7 7 8
6 7 7 7 6 7 6 4 5 6 6 6 4 4 5 6 5 4 4 1 2 4 3 4 2 2 3 3 4 6 7 4 9 9 8 9 9 9 9 10 10 11 11
8 7 8 8 7 8 8 6 6 6 5 5 5 6 6 5 5 5 4 4 2 0 2 1 2 1 3 3 1 6 5 7 9 9 11 11 11 11 12 13 13 14 14
6 7 8 8 8 8 6 7 8 9 8 7 7 7 8 6 5 4 4 3 3 2 1 4 0 1 3 3 3 4 4 5 5 11 13 12 12 11 12 13 14 15 12
6 6 7 6 7 7 8 9 8 6 7 6 6 6 6 4 5 4 3 4 5 3 1 2 2 1 4 3 5 5 4 5 6 7 11 12 13 12 12 12 11 11 9
7 6 6 6 7 7 7 6 7 7 7 7 7 6 5 5 5 4 3 3 2 2 2 1 1 1 2 2 3 2 4 4 5 6 11 12 12 11 11 11 10 10 9
7 6 6 6 6 6 6 6 6 6 6 6 6 6 6 6 5 4 2 2 2 1 1 1 1 0 2 0 3 4 4 4 5 2 3 6 7 7 10 12 11 11 10
6 6 6 5 5 5 5 5 5 5 5 5 5 4 5 5 3 3 2 1 1 2 1 1 1 1 2 3 4 4 5 5 3 2 4 4 5 5 6 12 10 11 12
6 6 6 5 6 4 7 7 6 3 3 4 4 4 3 0 2 2 4 7 6 4 4 4 2 4 5 5 4 5 5 6 3 1 6 6 4 6 4 4 3 2 10
4 5 5 5 5 5 9 7 6 2 3 3 3 2 2 0 3 3 4 8 9 10 11 7 7 6 7 5 6 6 5 6 7 4 5 7 3 5 0 1 5 5 8
4 4 5 5 5 5 9 7 5 4 3 3 4 4 4 3 1 5 5 5 5 4 3 5 7 9 8 8 8 7 8 8 8 6 4 6 3 5 1 3 7 8 2
3 3 4 5 5 5 7 8 6 3 3 5 4 5 5 5 4 3 6 5 6 4 2 3 6 8 9 9 9 6 5 6 6 3 2 6 3 5 1 3 6 11 10
3 2 3 3 3 5 3 7 7 4 4 4 5 5 6 5 6 4 5 5 7 6 6 6 3 0 1 4 4 4 5 6 7 8 4 5 3 4 1 3 4 5 9
Wind_Direction
350 359 20 18 24 5 334 305 282 287 271 304 319 277 16 312 341 303 331 294 270 240 205 193 178 164 142 126 100 80 73 75 76 82 86 71 53 39 26 24 20 11 6
327 330 342 333 325 347 341 313 293 266 271 232 238 233 265 251 225 223 199 268 292 257 209 206 183 171 166 155 124 98 95 91 92 92 80 68 54 36 19 15 10 9 2
329 314 309 309 321 323 302 297 297 291 288 252 244 231 201 224 210 234 222 213 243 242 231 226 173 177 175 165 143 106 102 87 93 86 81 67 59 35 13 6 354 349 347
332 305 299 294 315 305 308 303 303 294 285 286 289 292 259 208 236 214 212 210 212 227 216 186 170 179 172 172 154 128 133 116 111 118 143 63 31 17 357 345 335 332 333
336 319 302 309 291 289 285 301 295 292 293 289 284 285 290 276 239 230 218 213 213 208 188 180 179 172 161 164 156 154 139 127 128 143 122 50 4 346 340 332 325 318 320
346 342 319 299 285 281 281 298 296 294 287 292 294 288 289 276 254 237 219 226 220 186 178 182 169 166 158 162 157 151 134 133 127 129 93 333 324 317 317 313 316 319 326
343 332 327 321 306 300 316 320 297 294 286 271 279 263 245 266 235 223 217 218 210 185 180 160 176 178 159 155 157 136 131 142 118 208 278 296 311 310 312 314 318 332 322
341 335 326 305 314 314 300 284 289 290 280 277 272 275 236 175 142 99 204 176 160 148 156 169 164 174 166 165 153 137 124 83 22 343 336 329 315 308 311 327 326 326 330
328 322 308 296 295 280 289 300 289 276 288 287 263 273 255 225 152 106 74 107 141 164 153 152 144 169 183 172 173 156 132 77 351 336 335 329 319 312 318 331 327 329 332
333 329 315 302 302 304 301 297 286 272 268 280 265 247 258 308 241 148 92 69 128 138 114 137 127 159 167 181 141 56 123 6 336 333 331 320 308 310 318 331 332 332 336
353 350 334 316 307 304 315 298 294 280 270 280 277 162 225 201 253 191 149 147 128 86 79 115 144 156 157 169 165 112 11 318 308 307 308 305 303 297 327 324 334 329 329
345 354 3 26 20 355 345 327 315 288 259 254 251 223 207 147 32 23 94 108 152 98 72 99 148 163 155 151 156 356 278 297 307 291 278 286 299 296 304 326 336 334 336
352 351 346 356 357 357 342 334 343 346 329 145 219 255 37 90 134 65 53 95 162 123 129 115 114 137 160 218 243 281 256 276 289 287 265 268 264 266 276 284 286 300 314
344 358 338 31 0 345 315 324 41 9 69 95 106 87 104 125 130 133 188 155 156 163 153 82 181 210 226 254 305 281 267 235 269 265 253 247 247 247 259 265 267 271 277
349 355 358 13 346 343 349 16 56 66 77 89 86 101 81 79 88 98 105 90 320 176 157 155 203 157 264 264 276 276 262 235 257 253 255 251 248 250 254 257 262 265 268
355 2 2 3 9 7 358 45 83 70 72 68 67 84 74 70 83 73 72 72 55 251 165 153 162 347 285 271 263 263 264 269 245 255 255 252 249 251 250 250 251 255 259
0 6 2 5 15 12 5 55 68 63 59 67 65 70 73 69 71 78 82 82 87 359 55 120 209 131 266 289 289 268 259 265 249 229 249 254 258 263 260 252 248 250 254
8 1 1 10 21 26 14 52 53 50 51 53 56 64 63 64 68 64 68 61 65 56 9 94 83 172 246 268 278 274 268 261 268 216 234 249 251 252 252 250 250 252 244
4 5 9 17 21 25 31 46 41 41 45 49 49 56 63 68 70 70 69 95 81 80 57 14 17 263 273 290 312 269 300 309 266 259 242 244 245 247 248 251 246 240 223
14 21 24 26 24 31 37 36 36 44 48 54 58 64 69 67 70 84 100 75 47 28 68 262 191 246 268 1 298 322 341 338 334 330 233 263 284 254 250 247 244 228 208
29 31 32 35 29 37 29 19 39 47 50 61 63 61 62 38 29 359 333 109 193 217 224 325 19 283 307 298 333 354 310 335 296 261 301 283 277 263 243 221 246 212 200
46 44 40 33 41 47 3 4 344 41 45 48 52 57 55 137 100 305 279 271 281 271 285 305 305 310 295 295 308 313 313 314 333 137 311 307 284 287 282 266 45 246 201
28 29 23 13 18 7 355 329 319 299 331 356 342 329 307 315 265 302 213 235 230 233 246 290 285 284 298 305 309 294 289 293 292 324 296 289 287 289 36 24 1 272 224
6 8 12 11 9 29 358 346 322 287 292 288 277 273 271 287 325 320 326 337 337 313 278 252 254 276 283 297 291 287 298 289 274 262 230 281 1 307 347 107 50 32 107
344 6 7 6 10 24 5 356 319 291 286 280 270 267 287 308 36 327 311 335 342 5 144 235 269 288 290 285 270 278 264 279 313 353 197 285 313 312 348 81 73 67 73
307 316 335 351 360 346 49 356 347 328 316 307 281 276 219 315 344 342 319 338 332 2 342 346 356 230 247 68 98 250 327 322 329 311 94 284 339 350 316 97 97 115 97